C/2018 R4 ( Fuls )

Japanese version
Home page
Updated on October 22, 2018

---------------------------------------------------------------------

* Profile

Discovery Date September 9, 2018
Magnitude 19.1 mag
Discoverer D. C. Fuls (Catalina Sky Survey)

* Pictures

* Orbital Elements

Epoch 2018 Mar. 23.0 TT = JDT 2458200.5
T 2018 Mar. 3.56547 TT                                  MPCW
q   1.7093737            (2000.0)            P               Q
z  +0.0034787      Peri.  345.12211     +0.23972153     +0.95437982
 +/-0.0002913      Node   298.47214     -0.86876732     +0.12903249
e   0.9940536      Incl.   11.68433     -0.43333236     +0.26927641
From 80 observations 2018 Aug. 14-Sept. 16, mean residual 0".5.

* Magnitudes Graph

        m1 = 13.5 + 5 log d + 10.0 log r

---------------------------------------------------------------------

The orbital elements are published on M.P.E.C. 2018-S50.
The magnitudes graphs are made with Comet for Windows.

---------------------------------------------------------------------

Copyright(C) Seiichi Yoshida (comet@aerith.net). All rights reserved.